Renfrew, PA

5:14 AM EDT on August 31, 2016 (GMT -0400)
Butler County-Scholter

Weather History for KBTP - October, 2013

Change the Weather History Date:

Saturday, October 26, 2013

  Actual Average Record
Temperature  
Mean Temperature 38 °F -  
Max Temperature 46 °F 55 °F 78 °F (1991)
Min Temperature 30 °F 38 °F 23 °F (1987)
Degree Days  
Heating Degree Days 27    
Moisture  
Dew Point 25 °F    
Average Humidity 58    
Maximum Humidity 80    
Minimum Humidity 37    
Precipitation  
Precipitation 0.00 in - - ()
Sea Level Pressure  
Sea Level Pressure 30.05 in    
Wind  
Wind Speed 10 mph (SW)    
Max Wind Speed 23 mph    
Max Gust Speed 31 mph    
Visibility 10 miles    
Events      
Averages and records for this station are not official NWS values.
T = Trace of Precipitation, MM = Missing Value Source: NWS Daily Summary

Daily Weather History Graph

Daily Weather History Graph

Search for Another Location

Airport or City:

Trip Planner

Search our weather history database for the weather conditions in past years. The results will help you decide how hot, cold, wet, or windy it might be!

Date:

Astronomy

Oct. 26, 2013 Rise Set
Actual Time 7:43 AM EDT 6:23 PM EDT
Civil Twilight 7:15 AM EDT 6:51 PM EDT
Nautical Twilight 6:43 AM EDT 7:23 PM EDT
Astronomical Twilight 6:11 AM EDT 7:55 PM EDT
Moon No Moon Rise 1:58 PM EDT (10/26)
Length of Visible Light 11h 35m
Length of Day
10h 39m
Waning Gibbous, 53% of the Moon is Illuminated
Oct 26
Waning Gibbous
Oct 26
Last Quarter
Nov 3
New
Nov 10
First Quarter
Nov 17
Full

Hourly Weather History & Observations

Time (EDT) Temp. Windchill Dew Point Humidity Pressure Visibility Wind Dir Wind Speed Gust Speed Precip Events Conditions
12:15 AM 33.8 °F 27.7 °F 26.6 °F 75% 30.24 in 10.0 mi SSW 6.9 mph - N/A   Clear
12:35 AM 33.8 °F 27.7 °F 26.6 °F 75% 30.23 in 10.0 mi SSW 6.9 mph - N/A   Clear
12:55 AM 33.8 °F 27.7 °F 26.6 °F 75% 30.23 in 10.0 mi SSW 6.9 mph - N/A   Clear
1:15 AM 33.8 °F 27.7 °F 26.6 °F 75% 30.23 in 10.0 mi SSW 6.9 mph - N/A   Clear
1:35 AM 33.8 °F 27.7 °F 26.6 °F 75% 30.23 in 10.0 mi SSW 6.9 mph - N/A   Clear
1:55 AM 33.8 °F 28.6 °F 26.6 °F 75% 30.23 in 10.0 mi SSW 5.8 mph - N/A   Clear
2:15 AM 33.8 °F 27.7 °F 26.6 °F 75% 30.22 in 10.0 mi SSW 6.9 mph - N/A   Clear
2:35 AM 33.8 °F 26.4 °F 26.6 °F 75% 30.22 in 10.0 mi SSW 9.2 mph - N/A   Clear
2:55 AM 33.8 °F 26.4 °F 26.6 °F 75% 30.21 in 10.0 mi SSW 9.2 mph - N/A   Clear
3:15 AM 33.8 °F 27.7 °F 24.8 °F 70% 30.21 in 10.0 mi SSW 6.9 mph - N/A   Clear
3:35 AM 33.8 °F 27.0 °F 24.8 °F 70% 30.20 in 10.0 mi SSW 8.1 mph - N/A   Clear
3:55 AM 33.8 °F 27.0 °F 24.8 °F 70% 30.19 in 10.0 mi South 8.1 mph - N/A   Clear
4:15 AM 32.0 °F 24.2 °F 24.8 °F 75% 30.17 in 10.0 mi South 9.2 mph - N/A   Clear
4:35 AM 32.0 °F 24.2 °F 24.8 °F 75% 30.17 in 10.0 mi South 9.2 mph - N/A   Clear
4:55 AM 33.8 °F 27.0 °F 24.8 °F 70% 30.16 in 10.0 mi SSW 8.1 mph - N/A   Clear
5:15 AM 32.0 °F 25.6 °F 24.8 °F 75% 30.16 in 10.0 mi SSW 6.9 mph - N/A   Clear
5:35 AM 32.0 °F 24.8 °F 24.8 °F 75% 30.16 in 10.0 mi SSW 8.1 mph - N/A   Clear
5:55 AM 32.0 °F 25.6 °F 24.8 °F 75% 30.16 in 10.0 mi SSW 6.9 mph - N/A   Clear
6:15 AM 32.0 °F 26.4 °F 24.8 °F 75% 30.16 in 10.0 mi SSW 5.8 mph - N/A   Clear
6:35 AM 30.2 °F 24.3 °F 24.8 °F 80% 30.15 in 10.0 mi SSW 5.8 mph - N/A   Clear
6:55 AM 32.0 °F 24.8 °F 24.8 °F 75% 30.14 in 10.0 mi SSW 8.1 mph - N/A   Clear
7:15 AM 32.0 °F 24.8 °F 24.8 °F 75% 30.13 in 10.0 mi SSW 8.1 mph - N/A   Clear
7:35 AM 32.0 °F 24.8 °F 24.8 °F 75% 30.13 in 10.0 mi SSW 8.1 mph - N/A   Clear
7:55 AM 30.2 °F 22.6 °F 24.8 °F 80% 30.12 in 10.0 mi SSW 8.1 mph - N/A   Clear
8:15 AM 32.0 °F 26.4 °F 24.8 °F 75% 30.12 in 10.0 mi SW 5.8 mph - N/A   Clear
8:35 AM 33.8 °F 26.4 °F 24.8 °F 70% 30.12 in 10.0 mi SSW 9.2 mph 16.1 mph N/A   Clear
8:55 AM 33.8 °F 26.4 °F 24.8 °F 70% 30.12 in 10.0 mi SSW 9.2 mph - N/A   Clear
9:15 AM 35.6 °F 27.1 °F 26.6 °F 70% 30.10 in 10.0 mi SSW 12.7 mph 23.0 mph N/A   Clear
9:35 AM 35.6 °F 27.1 °F 24.8 °F 65% 30.09 in 10.0 mi SSW 12.7 mph 20.7 mph N/A   Clear
9:55 AM 37.4 °F 29.3 °F 26.6 °F 65% 30.08 in 10.0 mi SW 12.7 mph 24.2 mph N/A   Clear
10:15 AM 37.4 °F 27.5 °F 24.8 °F 60% 30.07 in 10.0 mi SW 18.4 mph 26.5 mph N/A   Clear
10:35 AM 39.2 °F 29.3 °F 24.8 °F 56% 30.07 in 10.0 mi SW 20.7 mph 31.1 mph N/A   Clear
10:55 AM 41.0 °F 32.2 °F 26.6 °F 57% 30.05 in 10.0 mi SSW 18.4 mph 27.6 mph N/A   Clear
11:15 AM 42.8 °F 34.8 °F 26.6 °F 53% 30.05 in 10.0 mi SW 17.3 mph 27.6 mph N/A   Clear
11:35 AM 42.8 °F 34.5 °F 26.6 °F 53% 30.04 in 10.0 mi SW 18.4 mph 28.8 mph N/A   Clear
11:55 AM 44.6 °F 35.9 °F 24.8 °F 46% 30.04 in 10.0 mi WSW 23.0 mph 29.9 mph N/A   Clear
12:15 PM 44.6 °F 37.4 °F 26.6 °F 49% 30.03 in 10.0 mi SW 16.1 mph 24.2 mph N/A   Clear
12:35 PM 46.4 °F 39.8 °F 24.8 °F 43% 30.01 in 10.0 mi South 16.1 mph 23.0 mph N/A   Clear
12:55 PM 46.4 °F 39.8 °F 24.8 °F 43% 29.99 in 10.0 mi SSW 16.1 mph 26.5 mph N/A   Partly Cloudy
1:15 PM 46.4 °F 40.1 °F 24.8 °F 43% 29.98 in 10.0 mi SSW 15.0 mph 21.9 mph N/A   Mostly Cloudy
1:35 PM 46.4 °F 41.1 °F 24.8 °F 43% 29.97 in 10.0 mi SSW 11.5 mph 23.0 mph N/A   Overcast
1:55 PM 46.4 °F 39.5 °F 23.0 °F 40% 29.95 in 10.0 mi SSW 17.3 mph 26.5 mph N/A   Overcast
2:15 PM 46.4 °F 39.8 °F 23.0 °F 40% 29.93 in 10.0 mi South 16.1 mph 21.9 mph N/A   Overcast
2:35 PM 46.4 °F 41.5 °F 23.0 °F 40% 29.93 in 10.0 mi SSW 10.4 mph 21.9 mph N/A   Overcast
2:55 PM 44.6 °F 38.1 °F 23.0 °F 43% 29.93 in 10.0 mi SSW 13.8 mph 21.9 mph N/A   Overcast
3:15 PM 46.4 °F 41.1 °F 24.8 °F 43% 29.92 in 10.0 mi SSW 11.5 mph 17.3 mph N/A   Overcast
3:35 PM 46.4 °F 41.5 °F 23.0 °F 40% 29.92 in 10.0 mi SSW 10.4 mph 20.7 mph N/A   Overcast
3:55 PM 46.4 °F 39.5 °F 23.0 °F 40% 29.91 in 10.0 mi SSW 17.3 mph 25.3 mph N/A   Overcast
4:15 PM 46.4 °F 40.7 °F 21.2 °F 37% 29.91 in 10.0 mi SSW 12.7 mph 18.4 mph N/A   Overcast
4:35 PM 46.4 °F 41.5 °F 23.0 °F 40% 29.91 in 10.0 mi SW 10.4 mph 17.3 mph N/A   Overcast
4:55 PM 46.4 °F 41.1 °F 23.0 °F 40% 29.90 in 10.0 mi SSW 11.5 mph 17.3 mph N/A   Overcast
5:15 PM 46.4 °F 41.1 °F 23.0 °F 40% 29.90 in 10.0 mi SW 11.5 mph 19.6 mph N/A   Overcast
5:35 PM 46.4 °F 41.1 °F 23.0 °F 40% 29.90 in 10.0 mi SSW 11.5 mph 19.6 mph N/A   Overcast
5:55 PM 46.4 °F 41.1 °F 23.0 °F 40% 29.91 in 10.0 mi WSW 11.5 mph 20.7 mph N/A   Overcast
6:15 PM 46.4 °F 40.4 °F 23.0 °F 40% 29.91 in 10.0 mi SW 13.8 mph 20.7 mph N/A   Overcast
6:35 PM 44.6 °F 39.7 °F 24.8 °F 46% 29.91 in 10.0 mi SW 9.2 mph 17.3 mph N/A   Overcast
6:55 PM 44.6 °F 37.2 °F 26.6 °F 49% 29.92 in 10.0 mi SW 17.3 mph 28.8 mph N/A   Overcast
7:15 PM 44.6 °F 37.4 °F 26.6 °F 49% 29.93 in 10.0 mi WSW 16.1 mph 24.2 mph N/A   Overcast
7:35 PM 44.6 °F 36.6 °F 26.6 °F 49% 29.93 in 10.0 mi WSW 19.6 mph 25.3 mph N/A   Overcast
7:55 PM 44.6 °F 37.2 °F 26.6 °F 49% 29.93 in 10.0 mi WSW 17.3 mph 31.1 mph N/A   Overcast
8:15 PM 44.6 °F 37.8 °F 26.6 °F 49% 29.94 in 10.0 mi SW 15.0 mph 23.0 mph N/A   Overcast
8:35 PM 44.6 °F 38.8 °F 26.6 °F 49% 29.94 in 10.0 mi WSW 11.5 mph 21.9 mph N/A   Overcast
8:55 PM 44.6 °F 38.1 °F 26.6 °F 49% 29.93 in 10.0 mi SW 13.8 mph 20.7 mph N/A   Overcast
9:15 PM 44.6 °F 39.7 °F 26.6 °F 49% 29.94 in 10.0 mi WSW 9.2 mph - N/A   Overcast
9:35 PM 44.6 °F 38.4 °F 26.6 °F 49% 29.94 in 10.0 mi WSW 12.7 mph 16.1 mph N/A   Overcast
9:55 PM 44.6 °F 37.8 °F 28.4 °F 53% 29.95 in 10.0 mi SW 15.0 mph 18.4 mph N/A   Overcast
10:15 PM 44.6 °F 38.8 °F 28.4 °F 53% 29.95 in 10.0 mi WSW 11.5 mph 19.6 mph N/A   Overcast
10:35 PM 44.6 °F 38.4 °F 28.4 °F 53% 29.95 in 10.0 mi SW 12.7 mph 18.4 mph N/A   Overcast
10:55 PM 44.6 °F 38.4 °F 28.4 °F 53% 29.96 in 10.0 mi WSW 12.7 mph 18.4 mph N/A   Overcast
11:15 PM 44.6 °F 39.2 °F 28.4 °F 53% 29.97 in 10.0 mi WSW 10.4 mph 17.3 mph N/A   Overcast
11:35 PM 44.6 °F 38.8 °F 30.2 °F 57% 29.98 in 10.0 mi West 11.5 mph 19.6 mph N/A   Overcast
11:55 PM 44.6 °F 38.8 °F 30.2 °F 57% 29.97 in 10.0 mi West 11.5 mph 21.9 mph N/A   Overcast